QIKCOM-1
1 42983U 98067NF 19143.80289471 .00001940 00000-0 31237-4 0 9997
2 42983 51.6396 110.1876 0004622 35.8651 324.2651 15.58682524 89303
AO-91
1 43017U 17073E 19143.74547048 .00000214 00000-0 22773-4 0 9992
2 43017 97.7236 66.1191 0256930 242.7914 114.6904 14.78528621 81423
EcAMSat
1 43019U 98067NG 19143.81068443 .00003722 00000-0 49643-4 0 9993
2 43019 51.6404 105.7780 0005039 18.6760 341.4417 15.60959848171684
PICSAT
1 43132U 18004X 19143.16916902 .00000837 00000-0 38077-4 0 9995
2 43132 97.4897 211.0369 0009472 358.1603 1.9597 15.23503699 75465
AO-92
1 43137U 18004AC 19143.68445914 .00000656 00000-0 30556-4 0 9990
2 43137 97.4889 211.5430 0009062 358.5989 1.5221 15.23410041 75537
TianYi 2
1 43155U 18008A 19143.85342669 .00000588 00000-0 38786-4 0 9993
2 43155 97.4872 216.9351 0019219 56.8484 35.1369 15.11101144 73928
Zhou Enlai
1 43156U 18008B 19143.83442057 .00000609 00000-0 40581-4 0 9994
2 43156 97.4913 216.8152 0016274 55.8657 83.2003 15.10600525 73893
TianYi 6
1 43158U 18008D 19143.80654734 .00000817 00000-0 53732-4 0 9993
2 43158 97.4855 216.3022 0014971 53.8140 86.1524 15.10202286 73856
S-Net G
1 43186U 18014G 19142.81543029 .00000326 00000-0 33688-4 0 9998
2 43186 97.7109 51.6575 0012565 95.5670 264.6985 14.96629173 71115
S-Net H
1 43187U 18014H 19143.61756091 .00000402 00000-0 40282-4 0 9996
2 43187 97.7107 52.4371 0012612 93.2012 267.0653 14.96629973 71235
S-Net J
1 43188U 18014J 19142.81504615 .00000316 00000-0 32756-4 0 9992
2 43188 97.7110 51.6620 0012550 95.5274 264.7380 14.96628841 71115
S-Net K
1 43189U 18014K 19142.81537499 .00000322 00000-0 33324-4 0 9998
2 43189 97.7107 51.6441 0012550 95.5704 264.6949 14.96628770 69669
FMN 1
1 43192U 18015A 19142.94205461 .00001520 00000-0 65141-4 0 9991
2 43192 097.3953 271.0352 0017395 032.5990 327.6313 15.24177399072248
Shaonian Xing
1 43199U 18015H 19143.88107361 .00001131 00000-0 48415-4 0 9995
2 43199 97.3740 271.1407 0018410 40.0588 320.1995 15.24716657 72438
1KUNS-PF
1 43466U 98067NP 19143.36289001 .00013017 00000-0 13356-3 0 9993
2 43466 51.6371 107.9794 0002077 51.0903 309.0277 15.65315687 58793
UBAKUSAT
1 43467U 98067NQ 19143.51014762 .00006787 00000-0 81228-4 0 9991
2 43467 51.6369 110.4601 0002578 1.5198 358.5803 15.62287542 58787
Irazu
1 43468U 98067NR 19142.37684800 .00016787 00000-0 15462-3 0 9998
2 43468 51.6362 110.3773 0002393 52.7324 307.3890 15.67775559158665
EnduroSat One
1 43551U 98067NZ 19143.33840723 .00009936 00000-0 11645-3 0 9993
2 43551 51.6374 113.8108 0006987 49.4858 310.6743 15.62204220 48950
EQUISat
1 43552U 98067PA 19143.36315074 .00007740 00000-0 95923-4 0 9996
2 43552 51.6384 114.7411 0007189 48.6511 311.5100 15.61117141 48907
UiTMSat 1
1 43589U 98067PD 19143.17543597 .00008747 00000-0 10746-3 0 9995
2 43589 51.6357 116.4457 0006598 54.8414 305.3197 15.61151041 44607
Maya 1
1 43590U 98067PE 19143.29889494 .00008326 00000-0 10251-3 0 9993
2 43590 51.6361 115.7741 0006724 55.5444 304.6184 15.61173500 44550
Bhutan 1
1 43591U 98067PF 19143.16248383 .00008034 00000-0 98928-4 0 9990
2 43591 51.6369 116.3788 0006869 55.9052 304.2592 15.61225450 44535
SiriusSat 1
1 43595U 98067PG 19143.19958995 .00008382 00000-0 10592-3 0 9990
2 43595 51.6360 117.3592 0004328 22.9877 337.1309 15.60480020 43705
SiriusSat 2
1 43596U 98067PH 19143.35532617 .00008129 00000-0 10353-3 0 9992
2 43596 51.6371 116.9297 0004892 22.5552 337.5656 15.60319406 43727
Tanusha-3
1 43597U 98067PJ 19143.18516274 .00009964 00000-0 11919-3 0 9992
2 43597 51.6355 116.4900 0004707 35.2711 324.8593 15.61674041 43717
SurfSat
1 43614U 18070B 19143.23721077 .00001731 00000-0 47182-4 0 9999
2 43614 93.0244 352.7652 0018282 53.6932 306.6006 15.37424323 38344
CP-7 DAVE
1 43615U 18070C 19143.30673874 .00001634 00000-0 44634-4 0 9990
2 43615 93.0245 352.7954 0018432 53.0482 307.2456 15.37352147 38353
ELFIN-B
1 43616U 18070D 19143.64999327 .00002256 00000-0 60403-4 0 9995
2 43616 93.0210 352.8546 0019325 55.1316 305.1751 15.37923422 38417
ELFIN-A
1 43617U 18070E 19143.64451105 .00002171 00000-0 58109-4 0 9999
2 43617 93.0266 353.0473 0018305 52.7070 307.5849 15.37960185 38419
STARS-Me Mother
1 43640U 98067PQ 19143.32522954 .00005277 00000-0 75251-4 0 9992
2 43640 51.6369 119.7202 0005916 7.4660 352.6420 15.58126884 35610
CubeBel 1
1 43666U 18083E 19143.77257671 .00000812 00000-0 43812-4 0 9998
2 43666 97.5201 168.4246 0013539 280.8273 167.4353 15.17530557 31353
Changshagaoxin
1 43669U 18083H 19143.19688732 .00000441 00000-0 25903-4 0 9992
2 43669 97.5080 167.2423 0009257 273.3315 86.6859 15.16751429 31211
Ten-Koh
1 43677U 18084G 19142.89758475 .00000011 00000-0 69495-5 0 9998
2 43677 97.8484 256.8073 0016354 16.0994 344.0740 14.90160925 30628
PO-101
1 43678U 18084H 19143.84492699 -.00000069 00000-0 -11645-5 0 9997
2 43678 97.8474 258.2065 0010990 34.8127 325.3796 14.91550097 30796
IRVINE 01
1 43693U 18088D 19143.04128026 .00001498 00000-0 65063-4 0 9997
2 43693 85.0340 335.7200 0016424 294.4658 65.4870 15.21275075 29312
QO-100
1 43700U 18090A 19142.82770337 .00000136 00000-0 00000 0 0 9995
2 43700 0.0112 289.5724 0002724 171.9855 102.3781 1.00273340 2024
Reaktor Hello World
1 43743U 18096AA 19143.75653620 .00001034 00000-0 42197-4 0 9992
2 43743 97.4605 213.7791 0019957 68.8355 84.9695 15.26553537 26775
MinXSS-2
1 43758U 18099A 19142.85439373 -.00000010 00000-0 43859-5 0 9999
2 43758 97.7459 215.2223 0016885 60.3187 299.9712 14.95386592 25424
AO-95
1 43770U 18099N 19143.19372880 .00000124 00000-0 16660-4 0 9994
2 43770 97.7460 215.3993 0015940 65.4932 294.7949 14.94746317 25463
RANGE-B
1 43772U 18099Q 19143.18454865 -.00000048 00000-0 85266-6 0 9995
2 43772 97.7514 215.5194 0015365 53.9418 306.3223 14.94848426 25450
RANGE-A
1 43773U 18099R 19143.18715693 -.00000134 00000-0 -70066-5 0 9993
2 43773 97.7408 215.2997 0014731 53.9921 306.2662 14.94788202 25457
MOVE-II
1 43780U 18099Y 19143.16581669 .00000278 00000-0 30663-4 0 9998
2 43780 97.7452 215.4011 0015045 64.2672 296.0100 14.95030379 25448
SNUSat 2
1 43782U 18099AA 19143.16048503 .00000291 00000-0 31773-4 0 9993
2 43782 97.7459 215.4341 0014085 54.5953 305.6581 14.95036469 25457
SnugLite
1 43784U 18099AC 19142.81733726 .00000606 00000-0 60365-4 0 9993
2 43784 97.7425 215.0374 0016552 62.5103 297.7798 14.95114000 25416
ITASat 1
1 43786U 18099AE 19143.15017651 .00000569 00000-0 57010-4 0 9996
2 43786 97.7478 215.4889 0016605 60.4447 299.8426 14.95122130 25467
EAGLET 1
1 43790U 18099AJ 19143.17370959 -.00000178 00000-0 -10832-4 0 9995
2 43790 97.7468 215.5919 0014889 64.8770 295.3994 14.95498840 25167
ESEO
1 43792U 18099AL 19143.17123235 -.00000223 00000-0 -14878-4 0 9995
2 43792 97.7449 215.5570 0014711 62.0584 298.2124 14.95499845 25228
CSIM
1 43793U 18099AM 19142.82643694 .00000588 00000-0 58023-4 0 9995
2 43793 97.7411 215.1280 0014538 62.6237 297.6461 14.95663548 25141
Astrocast 0.1
1 43798U 18099AS 19143.34755064 .00000556 00000-0 55104-4 0 9995
2 43798 97.7454 215.7949 0013553 47.4565 312.7798 14.95723131 25486
JO-97
1 43803U 18099AX 19142.86953528 .00000433 00000-0 44489-4 0 9991
2 43803 97.7433 215.1444 0016496 62.0935 298.1954 14.95247018 25416
Suomi 100
1 43804U 18099AY 19143.20366818 .00000447 00000-0 45825-4 0 9991
2 43804 97.7431 215.4732 0016558 61.1980 299.0901 14.95248036 25476
